Location: Cueva de Ratón
(10.1013°N, 67.6606°W)
Time: 23:41:14
(UTC+00:00)

Cosmos 1943 - Pass Details

Date: 02 December 2023
Orbit: 831 x 851 km, 71.0° (Epoch: 04 March)

Event Time Altitude Azimuth Distance (km) Brightness Sun altitude
Rises 22:58:32 0° 2° (N) 3,377 6.1 -12.6°
Reaches altitude 10° 23:01:18 10° 14° (NNE) 2,447 5.3 -13.2°
Maximum altitude 23:06:03 28° 72° (ENE) 1,520 3.9 -14.3°
Drops below altitude 10° 23:10:50 10° 130° (SE) 2,460 5.3 -15.4°
Sets 23:13:36 0° 142° (SE) 3,398 6.2 -16.1°
